owner,sensor,date,latitude,longitude,vertical_datum,sea_water_temperature,qcFlag 
WAVCIS,ioos:station:WAVCIS:CSI03:1,2015-07-01T00:00:00Z,29.4412,-92.0613,10.0,-2.738,11144222 
WAVCIS,ioos:station:WAVCIS:CSI03:1,2015-07-01T01:00:00Z,29.4412,-92.0613,10.0,-1.608,11144222 
WAVCIS,ioos:station:WAVCIS:CSI03:1,2015-07-01T02:00:00Z,29.4412,-92.0613,10.0,-1.379,11144222 
WAVCIS,ioos:station:WAVCIS:CSI03:1,2015-07-01T03:00:00Z,29.4412,-92.0613,10.0,-1.768,11144222 
WAVCIS,ioos:station:WAVCIS:CSI03:1,2015-07-01T04:00:00Z,29.4412,-92.0613,10.0,-1.213,11144222 
WAVCIS,ioos:station:WAVCIS:CSI03:1,2015-07-01T05:00:00Z,29.4412,-92.0613,10.0,-2.274,11144222 
WAVCIS,ioos:station:WAVCIS:CSI03:1,2015-07-01T06:00:00Z,29.4412,-92.0613,10.0,-3.041,11144222 
WAVCIS,ioos:station:WAVCIS:CSI03:1,2015-07-01T07:00:00Z,29.4412,-92.0613,10.0,-2.598,11144222 
WAVCIS,ioos:station:WAVCIS:CSI03:1,2015-07-01T08:00:00Z,29.4412,-92.0613,10.0,-3.055,11144222 
WAVCIS,ioos:station:WAVCIS:CSI03:1,2015-07-01T09:00:00Z,29.4412,-92.0613,10.0,-3.185,11144222 
WAVCIS,ioos:station:WAVCIS:CSI03:1,2015-07-01T10:00:00Z,29.4412,-92.0613,10.0,-3.121,11144222 
WAVCIS,ioos:station:WAVCIS:CSI03:1,2015-07-01T11:00:00Z,29.4412,-92.0613,10.0,-3.068,11144222 
WAVCIS,ioos:station:WAVCIS:CSI03:1,2015-07-01T12:00:00Z,29.4412,-92.0613,10.0,-2.769,11144222 
WAVCIS,ioos:station:WAVCIS:CSI03:1,2015-07-01T13:00:00Z,29.4412,-92.0613,10.0,-2.966,11144222 
WAVCIS,ioos:station:WAVCIS:CSI03:1,2015-07-01T14:00:00Z,29.4412,-92.0613,10.0,-3.336,11144222 
WAVCIS,ioos:station:WAVCIS:CSI03:1,2015-07-01T15:00:00Z,29.4412,-92.0613,10.0,-3.365,11144222 
WAVCIS,ioos:station:WAVCIS:CSI03:1,2015-07-01T16:00:00Z,29.4412,-92.0613,10.0,-4.065,11144222 
WAVCIS,ioos:station:WAVCIS:CSI03:1,2015-07-01T17:00:00Z,29.4412,-92.0613,10.0,-3.288,11144222 
WAVCIS,ioos:station:WAVCIS:CSI03:1,2015-07-01T18:00:00Z,29.4412,-92.0613,10.0,-2.359,11144222 
WAVCIS,ioos:station:WAVCIS:CSI03:1,2015-07-01T19:00:00Z,29.4412,-92.0613,10.0,-2.666,11144222 
WAVCIS,ioos:station:WAVCIS:CSI03:1,2015-07-01T20:00:00Z,29.4412,-92.0613,10.0,-2.489,11144222 
WAVCIS,ioos:station:WAVCIS:CSI03:1,2015-07-01T21:00:00Z,29.4412,-92.0613,10.0,-1.989,11144222 
WAVCIS,ioos:station:WAVCIS:CSI03:1,2015-07-01T22:00:00Z,29.4412,-92.0613,10.0,-1.558,11144222 
WAVCIS,ioos:station:WAVCIS:CSI03:1,2015-07-01T23:00:00Z,29.4412,-92.0613,10.0,-1.228,11144222 
WAVCIS,ioos:station:WAVCIS:CSI03:1,2015-07-02T00:00:00Z,29.4412,-92.0613,10.0,-1.033,11144222 
WAVCIS,ioos:station:WAVCIS:CSI03:1,2015-07-02T01:00:00Z,29.4412,-92.0613,10.0,-0.922,11144222 
WAVCIS,ioos:station:WAVCIS:CSI03:1,2015-07-02T02:00:00Z,29.4412,-92.0613,10.0,-0.256,11144222 
WAVCIS,ioos:station:WAVCIS:CSI03:1,2015-07-02T03:00:00Z,29.4412,-92.0613,10.0,-0.645,11144222 
WAVCIS,ioos:station:WAVCIS:CSI03:1,2015-07-02T04:00:00Z,29.4412,-92.0613,10.0,-0.528,11144222 
WAVCIS,ioos:station:WAVCIS:CSI03:1,2015-07-02T05:00:00Z,29.4412,-92.0613,10.0,-0.314,11144222 
WAVCIS,ioos:station:WAVCIS:CSI03:1,2015-07-02T06:00:00Z,29.4412,-92.0613,10.0,-0.6,11144222 
WAVCIS,ioos:station:WAVCIS:CSI03:1,2015-07-02T07:00:00Z,29.4412,-92.0613,10.0,-0.829,11144222 
WAVCIS,ioos:station:WAVCIS:CSI03:1,2015-07-02T08:00:00Z,29.4412,-92.0613,10.0,-1.483,11144222 
WAVCIS,ioos:station:WAVCIS:CSI03:1,2015-07-02T09:00:00Z,29.4412,-92.0613,10.0,-1.486,11144222 
WAVCIS,ioos:station:WAVCIS:CSI03:1,2015-07-02T10:00:00Z,29.4412,-92.0613,10.0,-1.569,11144222 
WAVCIS,ioos:station:WAVCIS:CSI03:1,2015-07-02T11:00:00Z,29.4412,-92.0613,10.0,-2.009,11144222 
WAVCIS,ioos:station:WAVCIS:CSI03:1,2015-07-02T12:00:00Z,29.4412,-92.0613,10.0,-1.849,11144222 
WAVCIS,ioos:station:WAVCIS:CSI03:1,2015-07-02T13:00:00Z,29.4412,-92.0613,10.0,-2.272,11144222 
WAVCIS,ioos:station:WAVCIS:CSI03:1,2015-07-02T14:00:00Z,29.4412,-92.0613,10.0,-2.795,11144222 
WAVCIS,ioos:station:WAVCIS:CSI03:1,2015-07-02T15:00:00Z,29.4412,-92.0613,10.0,-2.575,11144222 
WAVCIS,ioos:station:WAVCIS:CSI03:1,2015-07-02T16:00:00Z,29.4412,-92.0613,10.0,-2.523,11144222 
WAVCIS,ioos:station:WAVCIS:CSI03:1,2015-07-02T17:00:00Z,29.4412,-92.0613,10.0,-3.462,11144222 
WAVCIS,ioos:station:WAVCIS:CSI03:1,2015-07-02T18:00:00Z,29.4412,-92.0613,10.0,-2.915,11144222 
WAVCIS,ioos:station:WAVCIS:CSI03:1,2015-07-02T19:00:00Z,29.4412,-92.0613,10.0,-2.527,11144222 
WAVCIS,ioos:station:WAVCIS:CSI03:1,2015-07-02T20:00:00Z,29.4412,-92.0613,10.0,-1.746,11144222 
WAVCIS,ioos:station:WAVCIS:CSI03:1,2015-07-02T21:00:00Z,29.4412,-92.0613,10.0,-1.081,11144222 
WAVCIS,ioos:station:WAVCIS:CSI03:1,2015-07-02T22:00:00Z,29.4412,-92.0613,10.0,-1.032,11144222 
WAVCIS,ioos:station:WAVCIS:CSI03:1,2015-07-02T23:00:00Z,29.4412,-92.0613,10.0,-0.656,11144222 
WAVCIS,ioos:station:WAVCIS:CSI03:1,2015-07-03T00:00:00Z,29.4412,-92.0613,10.0,-0.064,11144222 
WAVCIS,ioos:station:WAVCIS:CSI03:1,2015-07-03T01:00:00Z,29.4412,-92.0613,10.0,-0.291,11144222 
WAVCIS,ioos:station:WAVCIS:CSI03:1,2015-07-03T02:00:00Z,29.4412,-92.0613,10.0,-0.416,11144222 
WAVCIS,ioos:station:WAVCIS:CSI03:1,2015-07-03T03:00:00Z,29.4412,-92.0613,10.0,-0.582,11144222 
WAVCIS,ioos:station:WAVCIS:CSI03:1,2015-07-03T04:00:00Z,29.4412,-92.0613,10.0,-0.475,11144222 
WAVCIS,ioos:station:WAVCIS:CSI03:1,2015-07-03T05:00:00Z,29.4412,-92.0613,10.0,-0.357,11144222 
WAVCIS,ioos:station:WAVCIS:CSI03:1,2015-07-03T06:00:00Z,29.4412,-92.0613,10.0,-0.412,11144222 
WAVCIS,ioos:station:WAVCIS:CSI03:1,2015-07-03T07:00:00Z,29.4412,-92.0613,10.0,-0.403,11144222 
WAVCIS,ioos:station:WAVCIS:CSI03:1,2015-07-03T08:00:00Z,29.4412,-92.0613,10.0,-0.964,11144222 
WAVCIS,ioos:station:WAVCIS:CSI03:1,2015-07-03T09:00:00Z,29.4412,-92.0613,10.0,-1.287,11144222 
WAVCIS,ioos:station:WAVCIS:CSI03:1,2015-07-03T10:00:00Z,29.4412,-92.0613,10.0,-1.579,11144222 
WAVCIS,ioos:station:WAVCIS:CSI03:1,2015-07-03T11:00:00Z,29.4412,-92.0613,10.0,-1.698,11144222 
WAVCIS,ioos:station:WAVCIS:CSI03:1,2015-07-03T12:00:00Z,29.4412,-92.0613,10.0,-1.774,11144222 
WAVCIS,ioos:station:WAVCIS:CSI03:1,2015-07-03T13:00:00Z,29.4412,-92.0613,10.0,-1.394,11144222 
WAVCIS,ioos:station:WAVCIS:CSI03:1,2015-07-03T14:00:00Z,29.4412,-92.0613,10.0,-1.241,11144222 
WAVCIS,ioos:station:WAVCIS:CSI03:1,2015-07-03T15:00:00Z,29.4412,-92.0613,10.0,-1.456,11144222 
WAVCIS,ioos:station:WAVCIS:CSI03:1,2015-07-03T16:00:00Z,29.4412,-92.0613,10.0,-1.625,11144222 
WAVCIS,ioos:station:WAVCIS:CSI03:1,2015-07-03T17:00:00Z,29.4412,-92.0613,10.0,-1.911,11144222 
WAVCIS,ioos:station:WAVCIS:CSI03:1,2015-07-03T18:00:00Z,29.4412,-92.0613,10.0,-2.238,11144222 
WAVCIS,ioos:station:WAVCIS:CSI03:1,2015-07-03T19:00:00Z,29.4412,-92.0613,10.0,-2.268,11144222 
WAVCIS,ioos:station:WAVCIS:CSI03:1,2015-07-03T20:00:00Z,29.4412,-92.0613,10.0,-1.76,11144222 
WAVCIS,ioos:station:WAVCIS:CSI03:1,2015-07-03T21:00:00Z,29.4412,-92.0613,10.0,-1.678,11144222 
WAVCIS,ioos:station:WAVCIS:CSI03:1,2015-07-03T22:00:00Z,29.4412,-92.0613,10.0,-1.58,11144222 
WAVCIS,ioos:station:WAVCIS:CSI03:1,2015-07-03T23:00:00Z,29.4412,-92.0613,10.0,-1.24,11144222 
WAVCIS,ioos:station:WAVCIS:CSI03:1,2015-07-04T00:00:00Z,29.4412,-92.0613,10.0,-1.407,11144222 
WAVCIS,ioos:station:WAVCIS:CSI03:1,2015-07-04T01:00:00Z,29.4412,-92.0613,10.0,-1.314,11144222 
WAVCIS,ioos:station:WAVCIS:CSI03:1,2015-07-04T02:00:00Z,29.4412,-92.0613,10.0,-1.635,11144222 
WAVCIS,ioos:station:WAVCIS:CSI03:1,2015-07-04T03:00:00Z,29.4412,-92.0613,10.0,-2.266,11144222 
WAVCIS,ioos:station:WAVCIS:CSI03:1,2015-07-04T04:00:00Z,29.4412,-92.0613,10.0,-2.27,11144222 
WAVCIS,ioos:station:WAVCIS:CSI03:1,2015-07-04T05:00:00Z,29.4412,-92.0613,10.0,-2.178,11144222 
WAVCIS,ioos:station:WAVCIS:CSI03:1,2015-07-04T06:00:00Z,29.4412,-92.0613,10.0,-2.451,11144222 
WAVCIS,ioos:station:WAVCIS:CSI03:1,2015-07-04T07:00:00Z,29.4412,-92.0613,10.0,-2.51,11144222 
WAVCIS,ioos:station:WAVCIS:CSI03:1,2015-07-04T08:00:00Z,29.4412,-92.0613,10.0,-2.303,11144222 
WAVCIS,ioos:station:WAVCIS:CSI03:1,2015-07-04T09:00:00Z,29.4412,-92.0613,10.0,-2.395,11144222 
WAVCIS,ioos:station:WAVCIS:CSI03:1,2015-07-04T10:00:00Z,29.4412,-92.0613,10.0,-2.324,11144222 
WAVCIS,ioos:station:WAVCIS:CSI03:1,2015-07-04T11:00:00Z,29.4412,-92.0613,10.0,-2.799,11144222 
WAVCIS,ioos:station:WAVCIS:CSI03:1,2015-07-04T12:00:00Z,29.4412,-92.0613,10.0,-3.224,11144222 
WAVCIS,ioos:station:WAVCIS:CSI03:1,2015-07-04T13:00:00Z,29.4412,-92.0613,10.0,-3.686,11144222 
WAVCIS,ioos:station:WAVCIS:CSI03:1,2015-07-04T14:00:00Z,29.4412,-92.0613,10.0,-3.337,11144222 
WAVCIS,ioos:station:WAVCIS:CSI03:1,2015-07-04T15:00:00Z,29.4412,-92.0613,10.0,-3.242,11144222 
WAVCIS,ioos:station:WAVCIS:CSI03:1,2015-07-04T16:00:00Z,29.4412,-92.0613,10.0,-2.745,11144222 
WAVCIS,ioos:station:WAVCIS:CSI03:1,2015-07-04T17:00:00Z,29.4412,-92.0613,10.0,-2.77,11144222 
WAVCIS,ioos:station:WAVCIS:CSI03:1,2015-07-04T18:00:00Z,29.4412,-92.0613,10.0,-3.596,11144222 
WAVCIS,ioos:station:WAVCIS:CSI03:1,2015-07-04T19:00:00Z,29.4412,-92.0613,10.0,-2.844,11144222 
WAVCIS,ioos:station:WAVCIS:CSI03:1,2015-07-04T20:00:00Z,29.4412,-92.0613,10.0,-2.387,11144222 
WAVCIS,ioos:station:WAVCIS:CSI03:1,2015-07-04T21:00:00Z,29.4412,-92.0613,10.0,-2.038,11144222 
WAVCIS,ioos:station:WAVCIS:CSI03:1,2015-07-04T22:00:00Z,29.4412,-92.0613,10.0,-2.437,11144222 
WAVCIS,ioos:station:WAVCIS:CSI03:1,2015-07-04T23:00:00Z,29.4412,-92.0613,10.0,-2.576,11144222 
WAVCIS,ioos:station:WAVCIS:CSI03:1,2015-07-05T00:00:00Z,29.4412,-92.0613,10.0,-2.389,11144222 
WAVCIS,ioos:station:WAVCIS:CSI03:1,2015-07-05T01:00:00Z,29.4412,-92.0613,10.0,-2.624,11144222 
WAVCIS,ioos:station:WAVCIS:CSI03:1,2015-07-05T02:00:00Z,29.4412,-92.0613,10.0,-2.995,11144222 
WAVCIS,ioos:station:WAVCIS:CSI03:1,2015-07-05T03:00:00Z,29.4412,-92.0613,10.0,-3.463,11144222 
WAVCIS,ioos:station:WAVCIS:CSI03:1,2015-07-05T04:00:00Z,29.4412,-92.0613,10.0,-3.29,11144222 
WAVCIS,ioos:station:WAVCIS:CSI03:1,2015-07-05T05:00:00Z,29.4412,-92.0613,10.0,-3.422,11144222 
WAVCIS,ioos:station:WAVCIS:CSI03:1,2015-07-05T06:00:00Z,29.4412,-92.0613,10.0,-3.973,11144222 
WAVCIS,ioos:station:WAVCIS:CSI03:1,2015-07-05T07:00:00Z,29.4412,-92.0613,10.0,-4.253,11144222 
WAVCIS,ioos:station:WAVCIS:CSI03:1,2015-07-05T08:00:00Z,29.4412,-92.0613,10.0,-4.902,11144222 
WAVCIS,ioos:station:WAVCIS:CSI03:1,2015-07-05T09:00:00Z,29.4412,-92.0613,10.0,-5.046,11144222 
WAVCIS,ioos:station:WAVCIS:CSI03:1,2015-07-05T10:00:00Z,29.4412,-92.0613,10.0,-5.287,11144222 
WAVCIS,ioos:station:WAVCIS:CSI03:1,2015-07-05T11:00:00Z,29.4412,-92.0613,10.0,-5.056,11144222 
WAVCIS,ioos:station:WAVCIS:CSI03:1,2015-07-05T12:00:00Z,29.4412,-92.0613,10.0,-5.051,11144222 
WAVCIS,ioos:station:WAVCIS:CSI03:1,2015-07-05T13:00:00Z,29.4412,-92.0613,10.0,-5.281,11144222 
WAVCIS,ioos:station:WAVCIS:CSI03:1,2015-07-05T14:00:00Z,29.4412,-92.0613,10.0,-5.32,11144222 
WAVCIS,ioos:station:WAVCIS:CSI03:1,2015-07-05T15:00:00Z,29.4412,-92.0613,10.0,-5.384,11144222 
WAVCIS,ioos:station:WAVCIS:CSI03:1,2015-07-05T16:00:00Z,29.4412,-92.0613,10.0,-5.474,11144222 
WAVCIS,ioos:station:WAVCIS:CSI03:1,2015-07-05T17:00:00Z,29.4412,-92.0613,10.0,-5.435,11144222 
WAVCIS,ioos:station:WAVCIS:CSI03:1,2015-07-05T18:00:00Z,29.4412,-92.0613,10.0,-5.44,11144222 
WAVCIS,ioos:station:WAVCIS:CSI03:1,2015-07-05T19:00:00Z,29.4412,-92.0613,10.0,-5.591,11144222 
WAVCIS,ioos:station:WAVCIS:CSI03:1,2015-07-05T20:00:00Z,29.4412,-92.0613,10.0,-5.904,11144222 
WAVCIS,ioos:station:WAVCIS:CSI03:1,2015-07-05T21:00:00Z,29.4412,-92.0613,10.0,-6.046,11144222 
WAVCIS,ioos:station:WAVCIS:CSI03:1,2015-07-05T22:00:00Z,29.4412,-92.0613,10.0,-6.058,11144222 
WAVCIS,ioos:station:WAVCIS:CSI03:1,2015-07-05T23:00:00Z,29.4412,-92.0613,10.0,-5.462,11144222 
WAVCIS,ioos:station:WAVCIS:CSI03:1,2015-07-06T00:00:00Z,29.4412,-92.0613,10.0,-5.574,11144222 
WAVCIS,ioos:station:WAVCIS:CSI03:1,2015-07-06T01:00:00Z,29.4412,-92.0613,10.0,-5.417,11144222 
WAVCIS,ioos:station:WAVCIS:CSI03:1,2015-07-06T02:00:00Z,29.4412,-92.0613,10.0,-5.341,11144222 
WAVCIS,ioos:station:WAVCIS:CSI03:1,2015-07-06T03:00:00Z,29.4412,-92.0613,10.0,-5.51,11144222 
WAVCIS,ioos:station:WAVCIS:CSI03:1,2015-07-06T04:00:00Z,29.4412,-92.0613,10.0,-5.453,11144222 
WAVCIS,ioos:station:WAVCIS:CSI03:1,2015-07-06T05:00:00Z,29.4412,-92.0613,10.0,-4.485,11144222 
WAVCIS,ioos:station:WAVCIS:CSI03:1,2015-07-06T06:00:00Z,29.4412,-92.0613,10.0,-4.453,11144222 
WAVCIS,ioos:station:WAVCIS:CSI03:1,2015-07-06T07:00:00Z,29.4412,-92.0613,10.0,-4.484,11144222 
WAVCIS,ioos:station:WAVCIS:CSI03:1,2015-07-06T08:00:00Z,29.4412,-92.0613,10.0,-3.954,11144222 
WAVCIS,ioos:station:WAVCIS:CSI03:1,2015-07-06T09:00:00Z,29.4412,-92.0613,10.0,-2.16,11144222 
WAVCIS,ioos:station:WAVCIS:CSI03:1,2015-07-06T10:00:00Z,29.4412,-92.0613,10.0,-1.158,11144222 
WAVCIS,ioos:station:WAVCIS:CSI03:1,2015-07-06T11:00:00Z,29.4412,-92.0613,10.0,-0.311,11144222 
WAVCIS,ioos:station:WAVCIS:CSI03:1,2015-07-06T12:00:00Z,29.4412,-92.0613,10.0,0.561,11133222 
WAVCIS,ioos:station:WAVCIS:CSI03:1,2015-07-06T13:00:00Z,29.4412,-92.0613,10.0,-0.149,11144222 
WAVCIS,ioos:station:WAVCIS:CSI03:1,2015-07-06T14:00:00Z,29.4412,-92.0613,10.0,-0.65,11144222 
WAVCIS,ioos:station:WAVCIS:CSI03:1,2015-07-06T15:00:00Z,29.4412,-92.0613,10.0,-0.616,11144222 
WAVCIS,ioos:station:WAVCIS:CSI03:1,2015-07-06T16:00:00Z,29.4412,-92.0613,10.0,0.149,11133222 
WAVCIS,ioos:station:WAVCIS:CSI03:1,2015-07-06T17:00:00Z,29.4412,-92.0613,10.0,0.903,11133222 
WAVCIS,ioos:station:WAVCIS:CSI03:1,2015-07-06T18:00:00Z,29.4412,-92.0613,10.0,0.162,11133222 
WAVCIS,ioos:station:WAVCIS:CSI03:1,2015-07-06T19:00:00Z,29.4412,-92.0613,10.0,0.042,11133222 
WAVCIS,ioos:station:WAVCIS:CSI03:1,2015-07-06T20:00:00Z,29.4412,-92.0613,10.0,-1.038,11144222 
WAVCIS,ioos:station:WAVCIS:CSI03:1,2015-07-06T21:00:00Z,29.4412,-92.0613,10.0,-1.765,11144222 
WAVCIS,ioos:station:WAVCIS:CSI03:1,2015-07-06T22:00:00Z,29.4412,-92.0613,10.0,-1.936,11144222 
WAVCIS,ioos:station:WAVCIS:CSI03:1,2015-07-06T23:00:00Z,29.4412,-92.0613,10.0,-0.622,11144222 
WAVCIS,ioos:station:WAVCIS:CSI03:1,2015-07-07T00:00:00Z,29.4412,-92.0613,10.0,-1.549,11144222 
WAVCIS,ioos:station:WAVCIS:CSI03:1,2015-07-07T01:00:00Z,29.4412,-92.0613,10.0,-1.148,11144222 
WAVCIS,ioos:station:WAVCIS:CSI03:1,2015-07-07T02:00:00Z,29.4412,-92.0613,10.0,-0.885,11144222 
WAVCIS,ioos:station:WAVCIS:CSI03:1,2015-07-07T03:00:00Z,29.4412,-92.0613,10.0,0.151,11133222 
WAVCIS,ioos:station:WAVCIS:CSI03:1,2015-07-07T04:00:00Z,29.4412,-92.0613,10.0,0.704,11133222 
WAVCIS,ioos:station:WAVCIS:CSI03:1,2015-07-07T05:00:00Z,29.4412,-92.0613,10.0,0.741,11133222 
WAVCIS,ioos:station:WAVCIS:CSI03:1,2015-07-07T06:00:00Z,29.4412,-92.0613,10.0,1.136,11133222 
WAVCIS,ioos:station:WAVCIS:CSI03:1,2015-07-07T07:00:00Z,29.4412,-92.0613,10.0,1.073,11133222 
WAVCIS,ioos:station:WAVCIS:CSI03:1,2015-07-07T08:00:00Z,29.4412,-92.0613,10.0,0.474,11133222 
WAVCIS,ioos:station:WAVCIS:CSI03:1,2015-07-07T09:00:00Z,29.4412,-92.0613,10.0,0.58,11133222 
WAVCIS,ioos:station:WAVCIS:CSI03:1,2015-07-07T10:00:00Z,29.4412,-92.0613,10.0,0.608,11133222 
WAVCIS,ioos:station:WAVCIS:CSI03:1,2015-07-07T11:00:00Z,29.4412,-92.0613,10.0,0.653,11133222 
WAVCIS,ioos:station:WAVCIS:CSI03:1,2015-07-07T12:00:00Z,29.4412,-92.0613,10.0,0.419,11133222 
WAVCIS,ioos:station:WAVCIS:CSI03:1,2015-07-07T13:00:00Z,29.4412,-92.0613,10.0,-0.153,11144222 
WAVCIS,ioos:station:WAVCIS:CSI03:1,2015-07-07T14:00:00Z,29.4412,-92.0613,10.0,-1.27,11144222 
WAVCIS,ioos:station:WAVCIS:CSI03:1,2015-07-07T15:00:00Z,29.4412,-92.0613,10.0,-2.322,11144222 
WAVCIS,ioos:station:WAVCIS:CSI03:1,2015-07-07T16:00:00Z,29.4412,-92.0613,10.0,-2.56,11144222 
WAVCIS,ioos:station:WAVCIS:CSI03:1,2015-07-07T17:00:00Z,29.4412,-92.0613,10.0,-2.784,11144222 
WAVCIS,ioos:station:WAVCIS:CSI03:1,2015-07-07T18:00:00Z,29.4412,-92.0613,10.0,-2.727,11144222 
WAVCIS,ioos:station:WAVCIS:CSI03:1,2015-07-07T19:00:00Z,29.4412,-92.0613,10.0,-3.957,11144222 
WAVCIS,ioos:station:WAVCIS:CSI03:1,2015-07-07T20:00:00Z,29.4412,-92.0613,10.0,-3.295,11144222 
WAVCIS,ioos:station:WAVCIS:CSI03:1,2015-07-07T21:00:00Z,29.4412,-92.0613,10.0,-3.235,11144222 
WAVCIS,ioos:station:WAVCIS:CSI03:1,2015-07-07T22:00:00Z,29.4412,-92.0613,10.0,-3.5,11144222 
WAVCIS,ioos:station:WAVCIS:CSI03:1,2015-07-07T23:00:00Z,29.4412,-92.0613,10.0,-3.601,11144222 
WAVCIS,ioos:station:WAVCIS:CSI03:1,2015-07-08T00:00:00Z,29.4412,-92.0613,10.0,-3.9,11144222 
WAVCIS,ioos:station:WAVCIS:CSI03:1,2015-07-08T01:00:00Z,29.4412,-92.0613,10.0,-3.74,11144222 
WAVCIS,ioos:station:WAVCIS:CSI03:1,2015-07-08T02:00:00Z,29.4412,-92.0613,10.0,-3.518,11144222 
WAVCIS,ioos:station:WAVCIS:CSI03:1,2015-07-08T03:00:00Z,29.4412,-92.0613,10.0,-3.0,11144222 
WAVCIS,ioos:station:WAVCIS:CSI03:1,2015-07-08T04:00:00Z,29.4412,-92.0613,10.0,-2.307,11144222 
WAVCIS,ioos:station:WAVCIS:CSI03:1,2015-07-08T05:00:00Z,29.4412,-92.0613,10.0,-1.751,11144222 
WAVCIS,ioos:station:WAVCIS:CSI03:1,2015-07-08T06:00:00Z,29.4412,-92.0613,10.0,-2.008,11144222 
WAVCIS,ioos:station:WAVCIS:CSI03:1,2015-07-08T07:00:00Z,29.4412,-92.0613,10.0,-2.044,11144222 
WAVCIS,ioos:station:WAVCIS:CSI03:1,2015-07-08T08:00:00Z,29.4412,-92.0613,10.0,-1.485,11144222 
WAVCIS,ioos:station:WAVCIS:CSI03:1,2015-07-08T09:00:00Z,29.4412,-92.0613,10.0,-1.1,11144222 
WAVCIS,ioos:station:WAVCIS:CSI03:1,2015-07-08T10:00:00Z,29.4412,-92.0613,10.0,-0.472,11144222 
WAVCIS,ioos:station:WAVCIS:CSI03:1,2015-07-08T11:00:00Z,29.4412,-92.0613,10.0,-0.437,11144222 
WAVCIS,ioos:station:WAVCIS:CSI03:1,2015-07-08T12:00:00Z,29.4412,-92.0613,10.0,-1.049,11144222 
WAVCIS,ioos:station:WAVCIS:CSI03:1,2015-07-08T13:00:00Z,29.4412,-92.0613,10.0,-0.688,11144222 
WAVCIS,ioos:station:WAVCIS:CSI03:1,2015-07-08T14:00:00Z,29.4412,-92.0613,10.0,-0.532,11144222 
WAVCIS,ioos:station:WAVCIS:CSI03:1,2015-07-08T15:00:00Z,29.4412,-92.0613,10.0,-1.216,11144222 
WAVCIS,ioos:station:WAVCIS:CSI03:1,2015-07-08T16:00:00Z,29.4412,-92.0613,10.0,-1.018,11144222 
WAVCIS,ioos:station:WAVCIS:CSI03:1,2015-07-08T17:00:00Z,29.4412,-92.0613,10.0,-0.539,11144222 
WAVCIS,ioos:station:WAVCIS:CSI03:1,2015-07-08T18:00:00Z,29.4412,-92.0613,10.0,-0.359,11144222 
WAVCIS,ioos:station:WAVCIS:CSI03:1,2015-07-08T19:00:00Z,29.4412,-92.0613,10.0,-1.113,11144222 
WAVCIS,ioos:station:WAVCIS:CSI03:1,2015-07-08T20:00:00Z,29.4412,-92.0613,10.0,-1.268,11144222 
WAVCIS,ioos:station:WAVCIS:CSI03:1,2015-07-08T21:00:00Z,29.4412,-92.0613,10.0,-0.748,11144222 
WAVCIS,ioos:station:WAVCIS:CSI03:1,2015-07-08T22:00:00Z,29.4412,-92.0613,10.0,-0.469,11144222 
WAVCIS,ioos:station:WAVCIS:CSI03:1,2015-07-08T23:00:00Z,29.4412,-92.0613,10.0,-0.337,11144222 
WAVCIS,ioos:station:WAVCIS:CSI03:1,2015-07-09T00:00:00Z,29.4412,-92.0613,10.0,-0.76,11144222 
WAVCIS,ioos:station:WAVCIS:CSI03:1,2015-07-09T01:00:00Z,29.4412,-92.0613,10.0,-1.12,11144222 
WAVCIS,ioos:station:WAVCIS:CSI03:1,2015-07-09T02:00:00Z,29.4412,-92.0613,10.0,-1.452,11144222 
WAVCIS,ioos:station:WAVCIS:CSI03:1,2015-07-09T03:00:00Z,29.4412,-92.0613,10.0,-1.528,11144222 
WAVCIS,ioos:station:WAVCIS:CSI03:1,2015-07-09T04:00:00Z,29.4412,-92.0613,10.0,-1.018,11144222 
WAVCIS,ioos:station:WAVCIS:CSI03:1,2015-07-09T05:00:00Z,29.4412,-92.0613,10.0,-1.142,11144222 
WAVCIS,ioos:station:WAVCIS:CSI03:1,2015-07-09T06:00:00Z,29.4412,-92.0613,10.0,-1.225,11144222 
WAVCIS,ioos:station:WAVCIS:CSI03:1,2015-07-09T07:00:00Z,29.4412,-92.0613,10.0,-0.215,11144222 
WAVCIS,ioos:station:WAVCIS:CSI03:1,2015-07-09T08:00:00Z,29.4412,-92.0613,10.0,-0.22,11144222 
WAVCIS,ioos:station:WAVCIS:CSI03:1,2015-07-09T09:00:00Z,29.4412,-92.0613,10.0,0.437,11133222 
WAVCIS,ioos:station:WAVCIS:CSI03:1,2015-07-09T10:00:00Z,29.4412,-92.0613,10.0,0.678,11133222 
WAVCIS,ioos:station:WAVCIS:CSI03:1,2015-07-09T11:00:00Z,29.4412,-92.0613,10.0,0.946,11133222 
WAVCIS,ioos:station:WAVCIS:CSI03:1,2015-07-09T12:00:00Z,29.4412,-92.0613,10.0,0.546,11133222 
WAVCIS,ioos:station:WAVCIS:CSI03:1,2015-07-09T13:00:00Z,29.4412,-92.0613,10.0,-0.351,11144222 
WAVCIS,ioos:station:WAVCIS:CSI03:1,2015-07-09T14:00:00Z,29.4412,-92.0613,10.0,-0.209,11144222 
WAVCIS,ioos:station:WAVCIS:CSI03:1,2015-07-09T15:00:00Z,29.4412,-92.0613,10.0,0.146,11133222 
WAVCIS,ioos:station:WAVCIS:CSI03:1,2015-07-09T16:00:00Z,29.4412,-92.0613,10.0,1.04,11133222 
WAVCIS,ioos:station:WAVCIS:CSI03:1,2015-07-09T17:00:00Z,29.4412,-92.0613,10.0,1.808,11133222 
WAVCIS,ioos:station:WAVCIS:CSI03:1,2015-07-09T18:00:00Z,29.4412,-92.0613,10.0,2.009,11133222 
WAVCIS,ioos:station:WAVCIS:CSI03:1,2015-07-09T19:00:00Z,29.4412,-92.0613,10.0,1.928,11133222 
WAVCIS,ioos:station:WAVCIS:CSI03:1,2015-07-09T20:00:00Z,29.4412,-92.0613,10.0,1.483,11133222 
WAVCIS,ioos:station:WAVCIS:CSI03:1,2015-07-09T21:00:00Z,29.4412,-92.0613,10.0,0.883,11133222 
WAVCIS,ioos:station:WAVCIS:CSI03:1,2015-07-09T22:00:00Z,29.4412,-92.0613,10.0,0.892,11133222 
WAVCIS,ioos:station:WAVCIS:CSI03:1,2015-07-09T23:00:00Z,29.4412,-92.0613,10.0,0.411,11133222 
WAVCIS,ioos:station:WAVCIS:CSI03:1,2015-07-10T00:00:00Z,29.4412,-92.0613,10.0,0.484,11133222 
WAVCIS,ioos:station:WAVCIS:CSI03:1,2015-07-10T01:00:00Z,29.4412,-92.0613,10.0,-3.408,11144222 
WAVCIS,ioos:station:WAVCIS:CSI03:1,2015-07-10T02:00:00Z,29.4412,-92.0613,10.0,-5.074,11144222 
WAVCIS,ioos:station:WAVCIS:CSI03:1,2015-07-10T03:00:00Z,29.4412,-92.0613,10.0,-5.779,11144222 
WAVCIS,ioos:station:WAVCIS:CSI03:1,2015-07-10T04:00:00Z,29.4412,-92.0613,10.0,-5.66,11144222 
WAVCIS,ioos:station:WAVCIS:CSI03:1,2015-07-10T05:00:00Z,29.4412,-92.0613,10.0,-5.68,11144222 
WAVCIS,ioos:station:WAVCIS:CSI03:1,2015-07-10T06:00:00Z,29.4412,-92.0613,10.0,-5.723,11144222 
WAVCIS,ioos:station:WAVCIS:CSI03:1,2015-07-10T07:00:00Z,29.4412,-92.0613,10.0,-5.909,11144222 
WAVCIS,ioos:station:WAVCIS:CSI03:1,2015-07-10T08:00:00Z,29.4412,-92.0613,10.0,-4.395,11144222 
WAVCIS,ioos:station:WAVCIS:CSI03:1,2015-07-10T09:00:00Z,29.4412,-92.0613,10.0,-4.048,11144222 
WAVCIS,ioos:station:WAVCIS:CSI03:1,2015-07-10T10:00:00Z,29.4412,-92.0613,10.0,-2.919,11144222 
WAVCIS,ioos:station:WAVCIS:CSI03:1,2015-07-10T11:00:00Z,29.4412,-92.0613,10.0,-1.68,11144222 
WAVCIS,ioos:station:WAVCIS:CSI03:1,2015-07-10T12:00:00Z,29.4412,-92.0613,10.0,0.38,11133222 
WAVCIS,ioos:station:WAVCIS:CSI03:1,2015-07-10T13:00:00Z,29.4412,-92.0613,10.0,-0.913,11144222 
WAVCIS,ioos:station:WAVCIS:CSI03:1,2015-07-10T14:00:00Z,29.4412,-92.0613,10.0,0.623,11133222 
WAVCIS,ioos:station:WAVCIS:CSI03:1,2015-07-10T15:00:00Z,29.4412,-92.0613,10.0,-3.776,11144222 
WAVCIS,ioos:station:WAVCIS:CSI03:1,2015-07-10T16:00:00Z,29.4412,-92.0613,10.0,-6.376,11144222 
WAVCIS,ioos:station:WAVCIS:CSI03:1,2015-07-10T17:00:00Z,29.4412,-92.0613,10.0,-6.56,11144222 
WAVCIS,ioos:station:WAVCIS:CSI03:1,2015-07-10T18:00:00Z,29.4412,-92.0613,10.0,-6.349,11144222 
WAVCIS,ioos:station:WAVCIS:CSI03:1,2015-07-10T19:00:00Z,29.4412,-92.0613,10.0,-6.377,11144222 
WAVCIS,ioos:station:WAVCIS:CSI03:1,2015-07-10T20:00:00Z,29.4412,-92.0613,10.0,-6.564,11144222 
WAVCIS,ioos:station:WAVCIS:CSI03:1,2015-07-10T21:00:00Z,29.4412,-92.0613,10.0,-5.678,11144222 
WAVCIS,ioos:station:WAVCIS:CSI03:1,2015-07-10T22:00:00Z,29.4412,-92.0613,10.0,-4.01,11144222 
WAVCIS,ioos:station:WAVCIS:CSI03:1,2015-07-10T23:00:00Z,29.4412,-92.0613,10.0,-3.884,11144222 
WAVCIS,ioos:station:WAVCIS:CSI03:1,2015-07-11T00:00:00Z,29.4412,-92.0613,10.0,-3.861,11144222 
WAVCIS,ioos:station:WAVCIS:CSI03:1,2015-07-11T01:00:00Z,29.4412,-92.0613,10.0,-3.229,11144222 
WAVCIS,ioos:station:WAVCIS:CSI03:1,2015-07-11T02:00:00Z,29.4412,-92.0613,10.0,-2.857,11144222 
WAVCIS,ioos:station:WAVCIS:CSI03:1,2015-07-11T03:00:00Z,29.4412,-92.0613,10.0,-2.529,11144222 
WAVCIS,ioos:station:WAVCIS:CSI03:1,2015-07-11T04:00:00Z,29.4412,-92.0613,10.0,-1.347,11144222 
WAVCIS,ioos:station:WAVCIS:CSI03:1,2015-07-11T05:00:00Z,29.4412,-92.0613,10.0,-0.934,11144222 
WAVCIS,ioos:station:WAVCIS:CSI03:1,2015-07-11T06:00:00Z,29.4412,-92.0613,10.0,-1.182,11144222 
WAVCIS,ioos:station:WAVCIS:CSI03:1,2015-07-11T07:00:00Z,29.4412,-92.0613,10.0,-1.957,11144222 
WAVCIS,ioos:station:WAVCIS:CSI03:1,2015-07-11T08:00:00Z,29.4412,-92.0613,10.0,-3.705,11144222 
WAVCIS,ioos:station:WAVCIS:CSI03:1,2015-07-11T09:00:00Z,29.4412,-92.0613,10.0,-4.488,11144222 
WAVCIS,ioos:station:WAVCIS:CSI03:1,2015-07-11T10:00:00Z,29.4412,-92.0613,10.0,-4.147,11144222 
WAVCIS,ioos:station:WAVCIS:CSI03:1,2015-07-11T11:00:00Z,29.4412,-92.0613,10.0,-3.741,11144222 